Regional Weather Roundup
Issued by NWS

Home | Current Version | Previous Version | Graphics & Text | Print | Product List | Glossary On
Versions: 1 2 3 4 5 6 7 8 9 10 11 12 13 14 15 16 17 18 19 20 21 22 23 24 25 26 27 28 29 30 31 32 33 34 35 36 37 38 39 40 41 42 43 44 45 46 47 48 49 50
000
ASUS44 KMEG 050200
RWRTN
TENNESSEE HOURLY STATE WEATHER ROUNDUP
NATIONAL WEATHER SERVICE MEMPHIS TN
900 PM CDT FRI SEP 04 2015

TNZ002-004-019-021-049-052-054-088>092-050300-
WEST TENNESSEE

CITY           SKY/WX    TMP DP  RH WIND       PRES   REMARKS
MEMPHIS INTL   PTCLDY    84  71  65 CALM      29.99R
NWS MEMPHIS      N/A     81 N/A N/A MISG        N/A
JACKSON        PTCLDY    76  72  87 CALM      30.01R
DYERSBURG      CLEAR     79  73  83 NE3       30.01R
PARIS          CLEAR     73  70  88 CALM      30.04R
$$

TNZ008-025-027-028-033-062-065-066-050300-
NORTH MIDDLE TENNESSEE

CITY           SKY/WX    TMP DP  RH WIND       PRES   REMARKS
NASHVILLE      PTCLDY    83  64  52 CALM      30.04R
CLARKSVILLE    CLEAR     78  67  68 CALM      30.03R
COOKEVILLE     CLEAR     73  72  94 NE3       30.07R
CROSSVILLE     CLEAR     73  66  78 CALM      30.13R
$$

TNZ061-075-076-078-094-096-097-050300-
SOUTH MIDDLE TENNESSEE

CITY           SKY/WX    TMP DP  RH WIND       PRES   REMARKS
SHELBYVILLE    CLEAR     75  72  88 CALM      30.06R
$$

TNZ017-018-042-046-047-050300-
NORTHEAST TENNESSEE

CITY           SKY/WX    TMP DP  RH WIND       PRES   REMARKS
TRI CITIES     PTCLDY    74  67  78 CALM      30.11R
$$

TNZ012-013-036-069-073-074-050300-
CENTRAL EAST TENNESSEE

CITY           SKY/WX    TMP DP  RH WIND       PRES   REMARKS
KNOXVILLE      CLEAR     78  66  66 NE5       30.05R
OAK RIDGE      CLEAR     77  70  79 CALM      30.07R
GATLINBURG     CLEAR     75  63  64 CALM      30.06R
$$

TNZ083-085-099-050300-
SOUTHEAST TENNESSEE

CITY           SKY/WX    TMP DP  RH WIND       PRES   REMARKS
CHATTANOOGA    PTCLDY    79  70  74 CALM      30.04R
$$

SKY/WX REPORTED AS FAIR MEANS FEW OR NO CLOUDS BELOW
12 THOUSAND FEET.




USA.gov is the U.S. government's official web portal to all federal, state and local government web resources and services.